Date,TemperatureHighF,TemperatureAvgF,TemperatureLowF,DewpointHighF,DewpointAvgF,DewpointLowF,HumidityHigh,HumidityAvg,HumidityLow,PressureMaxIn,PressureMinIn,WindSpeedMaxMPH,WindSpeedAvgMPH,GustSpeedMaxMPH,PrecipitationSumIn
2013-1-1,39.0,35.7,25.6,30.8,24.0,12.5,74,62,51,30.03,29.83,22,3,22,0.02
2013-1-2,32.2,27.0,20.0,18.7,14.3,10.7,74,59,48,30.18,30.01,21,3,21,0.00
2013-1-3,32.4,27.6,17.5,20.3,16.1,10.6,74,62,50,30.21,30.06,16,2,16,0.00
2013-1-4,38.4,33.9,29.0,25.0,22.4,19.8,74,63,52,30.08,29.94,21,3,21,0.00
2013-1-5,42.3,35.3,27.3,25.5,22.6,19.2,84,60,48,30.28,30.00,25,3,25,0.00
2013-1-6,47.3,39.7,30.5,32.7,29.0,25.8,90,66,49,30.11,29.96,12,2,12,0.00
2013-1-7,43.7,34.3,25.6,30.8,24.8,21.5,91,70,43,30.40,30.04,19,2,19,0.00
2013-1-8,48.5,34.0,21.8,32.6,26.3,19.1,96,75,53,30.43,30.33,12,1,12,0.00
2013-1-9,44.7,35.3,25.3,37.1,30.0,22.8,92,81,65,30.39,30.13,11,1,11,0.00
2013-1-10,47.4,41.3,31.3,33.2,26.7,23.9,82,57,40,30.55,30.22,20,5,20,0.00
2013-1-11,42.2,36.4,28.9,39.3,31.9,25.2,93,84,67,30.55,30.10,8,1,8,0.50
2013-1-12,46.9,44.6,41.2,44.4,42.6,39.3,94,93,90,30.17,30.07,6,0,6,0.04
2013-1-13,48.1,45.9,44.1,46.4,44.3,42.5,95,94,92,30.16,30.00,6,0,6,0.01
2013-1-14,55.9,48.8,38.1,52.7,42.2,31.1,96,80,50,30.30,29.90,21,3,21,0.08
2013-1-15,39.2,37.0,34.9,34.3,28.7,25.9,89,72,60,30.36,30.23,11,1,11,0.11
2013-1-16,35.4,33.1,31.7,32.6,30.9,28.6,93,91,76,30.24,29.82,7,1,10,0.12
2013-1-17,42.6,37.7,33.7,32.8,29.3,23.5,93,73,56,30.10,29.89,14,2,14,0.33
2013-1-18,33.7,27.5,24.3,23.4,12.3,5.5,66,53,38,30.48,30.02,21,3,21,0.00
2013-1-19,49.2,39.8,27.1,30.5,24.5,12.6,69,54,44,30.39,29.92,19,3,19,0.10
2013-1-20,52.4,41.9,29.7,32.5,24.1,9.8,75,51,23,30.04,29.68,29,6,29,0.00
2013-1-21,31.2,28.0,21.6,19.3,14.3,9.2,74,57,43,30.10,29.83,16,2,16,0.00
2013-1-22,26.7,19.9,13.4,18.2,2.7,-7.1,70,47,31,30.21,29.83,29,8,29,0.00
2013-1-23,19.4,14.3,9.9,4.6,-1.6,-5.2,76,49,35,30.26,30.16,22,4,22,0.00
2013-1-24,23.3,15.6,8.5,5.4,1.9,-1.9,84,57,33,30.41,30.14,28,5,28,0.00
2013-1-25,24.4,17.9,12.8,17.7,6.4,0.1,90,61,42,30.42,30.07,21,1,21,0.00
2013-1-26,27.9,18.6,9.3,11.3,8.0,5.6,89,65,41,30.38,30.05,21,3,21,0.02
2013-1-27,33.9,24.7,13.1,14.6,10.9,7.6,82,57,38,30.53,30.37,15,3,15,0.00
2013-1-28,34.0,29.5,22.0,31.9,25.0,14.2,92,83,67,30.50,30.00,14,1,14,0.24
2013-1-29,52.3,39.5,34.0,44.2,36.1,31.8,94,88,70,30.17,29.99,12,1,12,0.24
2013-1-30,57.5,46.4,37.7,56.1,44.6,35.9,95,93,87,30.10,29.35,16,1,16,0.17
2013-1-31,60.8,45.3,29.9,58.5,31.4,10.6,95,60,36,29.78,29.03,32,10,37,0.79